Location: Rounton
(54.4000°N, 1.3500°W)
Time: 17:38:24
(UTC+00:00)

Tiros 1 - Pass Details

Date: 06 December 2021
Orbit: 629 x 664 km, 48.4° (Epoch: 19 January)

Event Time Altitude Azimuth Distance (km) Brightness Sun altitude
Rises 17:56:14 0° 214° (SW) 2,913 11.3 -18.1°
Reaches altitude 10° 17:59:01 10° 198° (SSW) 2,013 10.1 -18.5°
Maximum altitude 18:02:25 20° 151° (SSE) 1,452 8.8 -19.0°
Enters shadow 18:03:10 20° 138° (SE) 1,485 8.7 -19.1°
